Jackson, WY

5:59 AM MST on December 09, 2019 (GMT -0700)
Jackson Hole

Weather History for KJAC - October, 2019

Change the Weather History Date:

Saturday, October 12, 2019

  Actual Average Record
Temperature  
Mean Temperature 32 °F -  
Max Temperature 53 °F 57 °F 74 °F (1991)
Min Temperature 12 °F 25 °F 9 °F (1986)
Degree Days  
Heating Degree Days 33    
Moisture  
Dew Point 15 °F    
Average Humidity 61    
Maximum Humidity 88    
Minimum Humidity 24    
Precipitation  
Precipitation 0.00 in - - ()
Sea Level Pressure  
Sea Level Pressure 30.27 in    
Wind  
Wind Speed 4 mph ()    
Max Wind Speed 8 mph    
Max Gust Speed -    
Visibility 10.0 miles    
Events      
Averages and records for this station are not official NWS values.
T = Trace of Precipitation, MM = Missing Value Source: Averaged Metar Reports

Daily Weather History Graph

Daily Weather History Graph

Search for Another Location

Airport or City:

Astronomy

Oct. 12, 2019 Rise Set
Actual Time 7:33 AM MDT 6:44 PM MDT
Civil Twilight 7:04 AM MDT 7:13 PM MDT
Nautical Twilight 6:31 AM MDT 7:46 PM MDT
Astronomical Twilight 5:58 AM MDT 8:19 PM MDT
Moon 6:45 PM MDT (10/12) 6:09 AM MDT (10/12)
Length of Visible Light 12h 09m
Length of Day
11h 11m
Waxing Gibbous, 99% of the Moon is Illuminated
Oct 12
Waxing Gibbous
Oct 13
Full
Oct 21
Last Quarter
Oct 27
New
Nov 4
First Quarter

Hourly Weather History & Observations

Time (MDT) Temp. Windchill Dew Point Humidity Pressure Visibility Wind Dir Wind Speed Gust Speed Precip Events Conditions
12:56 AM 18.0 °F 9.8 °F 14.0 °F 84% 30.39 in 10.0 mi NE 5.8 mph - N/A   Clear
1:56 AM 18.0 °F 12.7 °F 12.9 °F 81% 30.37 in 10.0 mi NE 3.5 mph - N/A   Clear
2:56 AM 15.1 °F 7.7 °F 10.9 °F 84% 30.36 in 10.0 mi NNE 4.6 mph - N/A   Clear
3:56 AM 16.0 °F 8.8 °F 10.9 °F 81% 30.34 in 10.0 mi NE 4.6 mph - N/A   Clear
4:56 AM 16.0 °F 6.3 °F 10.9 °F 81% 30.33 in 10.0 mi NNE 6.9 mph - N/A   Clear
5:56 AM 17.1 °F 6.6 °F 12.0 °F 81% 30.33 in 10.0 mi North 8.1 mph - N/A   Clear
6:56 AM 12.9 °F 6.9 °F 10.0 °F 88% 30.38 in 10.0 mi NE 3.5 mph - N/A   Clear
7:56 AM 12.9 °F 5.2 °F 10.0 °F 88% 30.38 in 10.0 mi NNE 4.6 mph - N/A   Clear
8:56 AM 19.9 °F - 14.0 °F 78% 30.41 in 10.0 mi Calm Calm - N/A   Clear
9:56 AM 26.1 °F - 16.0 °F 66% 30.38 in 10.0 mi Calm Calm - N/A   Clear
10:56 AM 32.0 °F - 17.1 °F 54% 30.33 in 10.0 mi Calm Calm - N/A   Clear
11:56 AM 37.0 °F 34.5 °F 17.1 °F 44% 30.29 in 10.0 mi Variable 3.5 mph - N/A   Clear
12:56 PM 39.9 °F 36.7 °F 16.0 °F 38% 30.27 in 10.0 mi Variable 4.6 mph - N/A   Clear
1:56 PM 44.1 °F 40.1 °F 16.0 °F 32% 30.21 in 10.0 mi South 6.9 mph - N/A   Clear
2:56 PM 48.0 °F - 16.0 °F 28% 30.17 in 10.0 mi Variable 3.5 mph - N/A   Clear
3:56 PM 51.1 °F - 16.0 °F 25% 30.14 in 10.0 mi South 3.5 mph - N/A   Clear
4:56 PM 52.0 °F - 17.1 °F 25% 30.13 in 10.0 mi West 4.6 mph - N/A   Clear
5:56 PM 52.0 °F - 16.0 °F 24% 30.11 in 10.0 mi West 4.6 mph - N/A   Clear
6:56 PM 43.0 °F 40.3 °F 17.1 °F 35% 30.17 in 10.0 mi North 4.6 mph - N/A   Clear
7:56 PM 33.1 °F 27.7 °F 16.0 °F 50% 30.23 in 10.0 mi East 5.8 mph - N/A   Clear
8:56 PM 25.0 °F 16.3 °F 17.1 °F 72% 30.24 in 10.0 mi North 8.1 mph - N/A   Clear
9:56 PM 27.0 °F 21.6 °F 17.1 °F 66% 30.21 in 10.0 mi East 4.6 mph - N/A   Clear
10:56 PM 23.0 °F 15.8 °F 16.0 °F 74% 30.20 in 10.0 mi NE 5.8 mph - N/A   Clear
11:56 PM 21.0 °F 11.4 °F 17.1 °F 85% 30.19 in 10.0 mi NNE 8.1 mph - N/A   Clear